Regional Weather Roundup
Issued by NWS Cleveland, OH

Home | Current Version | Previous Version | Text Only | Print | Product List | Glossary Off
Versions: 1 2 3 4 5 6 7 8 9 10 11 12 13 14 15 16 17 18 19 20 21 22 23 24 25 26 27 28 29 30 31 32 33 34 35 36 37 38 39 40 41 42 43 44 45 46 47 48 49 50

000
ASUS41 KCLE 012312
RWRCLE
OHIO REGIONAL WEATHER ROUNDUP
NATIONAL WEATHER SERVICE WILMINGTON, OH
700 PM EDT SUN MAY 01 2016

NOTE: "FAIR" INDICATES FEW OR NO CLOUDS BELOW 12,000 FEET WITH NO
SIGNIFICANT WEATHER AND/OR OBSTRUCTIONS TO VISIBILITY.

OHZ001>008-015>018-024>027-034-035-043-044-020000-
   NORTHWEST OHIO

CITY           SKY/WX    TMP DP  RH WIND       PRES   REMARKS
DEFIANCE       CLOUDY    56  51  84 NE7       29.97S
FINDLAY        CLOUDY    56  49  77 NE10      29.95S
TOLEDO EXPRESS CLOUDY    54  50  86 E9        29.97R
TOLEDO EXEC    CLOUDY    53  48  83 E7        29.99R HAZE
LIMA           CLOUDY    57  55  93 N14       29.94R
$$

OHZ009>014-019>023-028>033-038-089-020000-
   NORTHEAST OHIO

CITY           SKY/WX    TMP DP  RH WIND       PRES   REMARKS
CLE-HOPKINS    CLOUDY    54  49  83 N9        30.00R
CLE-LAKEFRONT  CLOUDY    50  48  93 NE8       29.97R FOG
CUY CO. ARPT   CLOUDY    54  50  87 NE12      29.97S
LORAIN-ELYRIA  CLOUDY    54  47  77 NE9       29.98R
ASHTABULA      CLOUDY    51  48  89 N7        29.97S
AKRON-CANTON   FAIR      65  56  72 N12       29.93R
WOOSTER        FAIR      60  55  83 N15       29.95R
MANSFIELD      CLOUDY    57  54  89 N12       29.95R
YOUNGSTOWN     CLOUDY    58  53  84 N13       29.95R
$$

OHZ042-051>053-060>062-070>072-077>081-020000-
  SOUTHWEST OHIO

CITY           SKY/WX    TMP DP  RH WIND       PRES   REMARKS
CINC-COVINGTON FAIR      64  60  87 S5        29.90S
CINC-LUNKEN    TSTM      67  63  87 SW8       29.91R FOG
HAMILTON       FAIR      77  57  50 CALM      29.88F
DAYTON         FAIR      75  54  47 W12       29.90S
WRIGHT-PAT AFB MOSUNNY   75  56  52 W6        29.88F
DAYTON GENERAL FAIR      74  54  49 NW6       29.88F
WILMINGTON     FAIR      78  57  48 CALM      29.88F
$$

OHZ036-037-039>041-045>050-054>059-063>069-073>076-082>088-020000-
  CENTRAL AND SOUTHEAST OHIO

CITY           SKY/WX    TMP DP  RH WIND       PRES   REMARKS
COLUMBUS       FAIR      71  58  63 NE10      29.89S
OSU AIRPORT    FAIR      71  60  68 NE7       29.89F
BOLTON FIELD   MOSUNNY   75  57  53 W5        29.90S
RICKENBACK AFB FAIR      75  58  55 CALM      29.88S
NEWARK         FAIR      71  57  61 VRB3      29.90F
MARION         PTSUNNY   61  57  87 NE14      29.94R FOG
LANCASTER      PTSUNNY   75  57  53 W7        29.90S
ZANESVILLE     FAIR      71  56  58 NE7       29.91S
NEW PHILLY     FAIR      70  55  59 CALM      29.93R
$$



USA.gov is the U.S. government's official web portal to all federal, state and local government web resources and services.